Hourly Data Report for October 01, 2017

All times are specified in Local Standard Time (LST). Add 1 hour to adjust for Daylight Saving Time where and when it is observed.

LILLOOET
BRITISH COLUMBIA

50°41'01.420" N
121°56'02.945" W
239.50 m
1114619
71999
WKF

Download Data

Hourly Data (October 2017)
Hourly Data Report for October 1, 2017
Temp Definition
°C
Dew Point Temp Definition
°C
Rel Hum Definition
%
Wind Dir Definition
10's deg

Wind Spd Definition
km/h
Visibility Definition
km
Stn Press Definition
kPa
Hmdx Definition


Wind Chill Definition


Weather Definition


TIME
00:00 8.5 7.7 94 LegendMM LegendMM   98.92     LegendNANA
01:00 8.4 7.6 95 LegendMM LegendMM   98.95     LegendNANA
02:00 7.8 7.0 94 LegendMM LegendMM   98.97     LegendNANA
03:00 7.9 6.8 93 LegendMM LegendMM   98.97     LegendNANA
04:00 7.6 6.7 94 LegendMM LegendMM   99.01     LegendNANA
05:00 7.5 6.5 93 LegendMM LegendMM   99.02     LegendNANA
06:00 7.7 6.6 92 LegendMM LegendMM   99.08     LegendNANA
07:00 8.1 6.6 91 LegendMM LegendMM   99.13     LegendNANA
08:00 10.5 7.5 82 LegendMM LegendMM   99.15     LegendNANA
09:00 9.6 6.5 81 LegendMM LegendMM   99.18     LegendNANA
10:00 12.5 6.8 68 LegendMM LegendMM   99.16     LegendNANA
11:00 13.3 6.5 63 LegendMM LegendMM   99.14     LegendNANA
12:00 13.5 5.7 59 LegendMM LegendMM   99.14     LegendNANA
13:00 13.3 5.4 59 LegendMM LegendMM   99.13     LegendNANA
14:00 13.1 7.1 67 LegendMM LegendMM   99.13     LegendNANA
15:00 13.2 5.8 61 LegendMM LegendMM   99.14     LegendNANA
16:00 13.5 6.8 64 LegendMM LegendMM   99.14     LegendNANA
17:00 12.5 4.4 58 LegendMM LegendMM   99.19     LegendNANA
18:00 11.4 5.7 68 LegendMM LegendMM   99.23     LegendNANA
19:00 11.2 6.1 71 LegendMM LegendMM   99.30     LegendNANA
20:00 11.8 5.6 66 LegendMM LegendMM   99.33     LegendNANA
21:00 12.0 5.3 64 LegendMM LegendMM   99.37     LegendNANA
22:00 11.5 4.6 62 LegendMM LegendMM   99.40     LegendNANA
23:00 11.0 4.7 65 LegendMM LegendMM   99.44     LegendNANA

Notes on Data Quality.

Legend

  • E = Estimated
  • M = Missing
  • NA = Not Available
  • ‡ = Partner data that is not subject to review by the National Climate Archives
Date modified: